Date String (YYYY-MM-DD hh:mm:ss) UTC,Instrument flags,Ambient pressure (hPa),Sample flow (lpm),Bypass flow (lpm),Sample temperature (°C),Ambient temperature (°C),ASC tube jacket temperature (°C),LED temperature (°C),Box temperature (°C),Sample RH (%),Span deviation,Mass concentration (μg/m³),Mass concentration (μg/m³),Mass concentration (μg/m³)
DateTimeUTC,F1_M11,P_M11,Q1_M11,Q2_M11,T1_M11,T2_M11,T3_M11,T4_M11,T5_M11,U1_M11,ZSPAN_M11,X0_M11,X2_M11,X1_M11
2021-11-25 23:00:00,,0831.7,5.01,0.00,28.4,27.7,00.0,37.4,30.2,05.9,0000.0,0002.46,0000.90,0000.61
2021-11-25 23:01:00,,0831.7,5.00,0.00,28.4,27.7,00.0,37.4,30.2,05.9,0000.0,0002.57,0000.92,0000.61
2021-11-25 23:02:00,,0831.7,5.00,0.00,28.4,27.7,00.0,37.4,30.2,05.9,0000.0,0002.84,0000.89,0000.61
2021-11-25 23:03:00,,0831.7,5.00,0.00,28.4,27.7,00.0,37.4,30.2,05.9,0000.0,0002.81,0000.91,0000.61
2021-11-25 23:04:00,,0831.7,4.99,0.00,28.5,27.7,00.0,37.4,30.2,05.9,0000.0,0002.05,0000.93,0000.62
2021-11-25 23:05:00,,0831.7,5.00,0.00,28.5,27.7,00.0,37.4,30.3,05.9,0000.0,0002.20,0000.97,0000.64
2021-11-25 23:06:00,,0831.6,5.00,0.00,28.5,27.7,00.0,37.4,30.3,05.9,0000.0,0002.29,0000.99,0000.64
2021-11-25 23:07:00,,0831.7,5.00,0.00,28.5,27.7,00.0,37.4,30.3,05.9,0000.0,0002.38,0001.01,0000.64
2021-11-25 23:08:00,,0831.6,5.01,0.00,28.5,27.8,00.0,37.4,30.3,05.9,0000.0,0002.31,0000.98,0000.64
2021-11-25 23:09:00,,0831.5,4.98,0.00,28.5,27.8,00.0,37.5,30.3,05.8,0000.0,0002.25,0000.97,0000.64
2021-11-25 23:10:00,,0831.6,5.00,0.00,28.5,27.8,00.0,37.5,30.3,05.8,0000.0,0002.29,0000.97,0000.64
2021-11-25 23:11:00,,0831.5,5.01,0.00,28.5,27.8,00.0,37.5,30.3,05.8,0000.0,0002.28,0000.97,0000.64
2021-11-25 23:12:00,,0831.5,4.99,0.00,28.5,27.8,00.0,37.5,30.3,05.8,0000.0,0002.18,0000.93,0000.63
2021-11-25 23:13:00,,0831.5,5.01,0.00,28.6,27.8,00.0,37.5,30.3,05.8,0000.0,0001.93,0000.93,0000.61
2021-11-25 23:14:00,,0831.5,4.98,0.00,28.6,27.8,00.0,37.5,30.4,05.8,0000.0,0001.85,0000.93,0000.60
2021-11-25 23:15:00,,0831.5,5.01,0.00,28.6,27.8,00.0,37.5,30.4,05.8,0000.0,0001.95,0000.93,0000.60
2021-11-25 23:16:00,,0831.5,4.99,0.00,28.6,27.8,00.0,37.5,30.4,05.9,0000.0,0001.87,0000.90,0000.58
2021-11-25 23:17:00,,0831.6,5.02,0.00,28.6,27.8,00.0,37.5,30.4,05.9,0000.0,0001.76,0000.88,0000.57
2021-11-25 23:18:00,,0831.5,4.99,0.00,28.6,27.8,00.0,37.5,30.4,05.8,0000.0,0001.66,0000.86,0000.57
2021-11-25 23:19:00,,0831.5,5.01,0.00,28.6,27.9,00.0,37.5,30.4,05.8,0000.0,0001.77,0000.89,0000.56
2021-11-25 23:20:00,,0831.5,4.99,0.00,28.6,27.9,00.0,37.5,30.4,05.8,0000.0,0001.85,0000.92,0000.57
2021-11-25 23:21:00,,0831.5,5.01,0.00,28.6,27.9,00.0,37.5,30.4,05.8,0000.0,0001.85,0000.94,0000.57
2021-11-25 23:22:00,,0831.6,5.00,0.00,28.6,27.9,00.0,37.6,30.4,05.8,0000.0,0001.81,0000.91,0000.57
2021-11-25 23:23:00,,0831.5,5.00,0.00,28.6,27.9,00.0,37.6,30.4,05.8,0000.0,0001.78,0000.91,0000.57
2021-11-25 23:24:00,,0831.5,5.00,0.00,28.6,27.9,00.0,37.6,30.4,05.8,0000.0,0001.77,0000.92,0000.58
2021-11-25 23:25:00,,0831.5,5.00,0.00,28.6,27.8,00.0,37.6,30.4,05.8,0000.0,0001.80,0000.94,0000.58
2021-11-25 23:26:00,,0831.4,5.00,0.00,28.6,27.8,00.0,37.6,30.4,05.8,0000.0,0001.70,0000.91,0000.57
2021-11-25 23:27:00,,0831.5,5.00,0.00,28.6,27.8,00.0,37.6,30.4,05.8,0000.0,0001.78,0000.93,0000.57
2021-11-25 23:28:00,,0831.4,5.01,0.00,28.6,27.8,00.0,37.6,30.3,05.9,0000.0,0001.90,0000.96,0000.58
2021-11-25 23:29:00,,0831.5,5.00,0.00,28.6,27.8,00.0,37.6,30.3,05.9,0000.0,0001.96,0000.93,0000.58
2021-11-25 23:30:00,,0831.5,4.99,0.00,28.6,27.8,00.0,37.6,30.3,05.9,0000.0,0002.88,0000.90,0000.58
2021-11-25 23:31:00,,0831.4,5.00,0.00,28.6,27.8,00.0,37.6,30.3,05.8,0000.0,0003.19,0000.87,0000.57
2021-11-25 23:32:00,,0831.5,5.00,0.00,28.6,27.8,00.0,37.6,30.3,05.8,0000.0,0003.77,0000.90,0000.56
2021-11-25 23:33:00,,0831.4,5.00,0.00,28.6,27.8,00.0,37.6,30.3,05.8,0000.0,0004.31,0000.92,0000.56
2021-11-25 23:34:00,,0831.4,4.99,0.00,28.6,27.8,00.0,37.6,30.3,05.8,0000.0,0004.32,0000.93,0000.56
2021-11-25 23:35:00,,0831.4,4.98,0.00,28.6,27.8,00.0,37.6,30.3,05.8,0000.0,0004.36,0000.94,0000.55
2021-11-25 23:36:00,,0831.4,5.00,0.00,28.6,27.8,00.0,37.6,30.4,05.8,0000.0,0004.37,0000.93,0000.56
2021-11-25 23:37:00,,0831.4,5.00,0.00,28.6,27.8,00.0,37.6,30.4,05.9,0000.0,0004.33,0000.92,0000.56
2021-11-25 23:38:00,,0831.4,5.00,0.00,28.6,27.8,00.0,37.6,30.3,05.9,0000.0,0004.21,0000.87,0000.56
2021-11-25 23:39:00,,0831.4,4.99,0.00,28.6,27.8,00.0,37.6,30.3,05.9,0000.0,0004.26,0000.87,0000.56
2021-11-25 23:40:00,,0831.4,5.01,0.00,28.6,27.8,00.0,37.6,30.3,05.9,0000.0,0004.15,0000.87,0000.55
2021-11-25 23:41:00,,0831.4,4.99,0.00,28.6,27.7,00.0,37.6,30.3,05.9,0000.0,0003.27,0000.89,0000.54
2021-11-25 23:42:00,,0831.5,5.00,0.00,28.6,27.7,00.0,37.6,30.3,05.9,0000.0,0002.85,0000.88,0000.54
2021-11-25 23:43:00,,0831.4,5.00,0.00,28.6,27.7,00.0,37.6,30.3,05.9,0000.0,0002.41,0000.84,0000.54
2021-11-25 23:44:00,,0831.5,5.00,0.00,28.6,27.7,00.0,37.6,30.3,05.9,0000.0,0001.85,0000.86,0000.55
2021-11-25 23:45:00,,0831.4,5.00,0.00,28.6,27.7,00.0,37.6,30.4,05.9,0000.0,0001.82,0000.85,0000.54
2021-11-25 23:46:00,,0831.5,5.00,0.00,28.6,27.8,00.0,37.6,30.4,05.8,0000.0,0001.70,0000.82,0000.55
2021-11-25 23:47:00,,0831.5,4.99,0.00,28.6,27.8,00.0,37.6,30.4,05.9,0000.0,0001.64,0000.79,0000.55
2021-11-25 23:48:00,,0831.5,5.00,0.00,28.6,27.7,00.0,37.6,30.4,05.9,0000.0,0001.62,0000.79,0000.54
2021-11-25 23:49:00,,0831.5,4.99,0.00,28.6,27.8,00.0,37.6,30.4,05.9,0000.0,0001.68,0000.81,0000.55
2021-11-25 23:50:00,,0831.5,5.01,0.00,28.6,27.8,00.0,37.6,30.4,05.9,0000.0,0001.74,0000.84,0000.55
2021-11-25 23:51:00,,0831.5,4.99,0.00,28.6,27.8,00.0,37.6,30.4,05.9,0000.0,0001.68,0000.84,0000.56
2021-11-25 23:52:00,,0831.6,5.00,0.00,28.6,27.8,00.0,37.6,30.3,05.9,0000.0,0001.69,0000.82,0000.57
2021-11-25 23:53:00,,0831.6,4.99,0.00,28.6,27.7,00.0,37.6,30.3,05.8,0000.0,0002.69,0000.84,0000.57
2021-11-25 23:54:00,,0831.6,5.01,0.00,28.6,27.7,00.0,37.6,30.3,05.8,0000.0,0003.00,0000.86,0000.58
2021-11-25 23:55:00,,0831.6,5.00,0.00,28.6,27.7,00.0,37.6,30.3,05.8,0000.0,0002.97,0000.87,0000.59
2021-11-25 23:56:00,,0831.6,5.00,0.00,28.6,27.7,00.0,37.6,30.3,05.8,0000.0,0002.89,0000.85,0000.60
2021-11-25 23:57:00,,0831.6,4.99,0.00,28.6,27.7,00.0,37.6,30.3,05.8,0000.0,0002.90,0000.86,0000.60
2021-11-25 23:58:00,,0831.6,5.00,0.00,28.6,27.7,00.0,37.6,30.3,05.9,0000.0,0002.93,0000.90,0000.61
2021-11-25 23:59:00,,0831.5,5.00,0.00,28.6,27.7,00.0,37.6,30.3,05.9,0000.0,0002.97,0000.92,0000.61
